AirNav   $300 off a Bose A20 aviation headset
 
 488 users online  

N85 Alexandria Airport
Pittstown, New Jersey, USA

GOING TO PITTSTOWN?


FAA INFORMATION EFFECTIVE 28 FEBRUARY 2019

Location

FAA Identifier: N85
Lat/Long: 40-35-15.2660N / 075-01-09.9140W
40-35.254433N / 075-01.165233W
40.5875739 / -75.0194206
(estimated)
Elevation: 480 ft. / 146.3 m (surveyed)
Variation: 10W (1965)
From city: 2 miles W of PITTSTOWN, NJ
Time zone: UTC -5 (UTC -4 during Daylight Saving Time)
Zip code: 08848

Airport Operations

Airport use: Open to the public
Activation date: 09/1945
Control tower: no
ARTCC: NEW YORK CENTER
FSS: MILLVILLE FLIGHT SERVICE STATION
NOTAMs facility: MIV (NOTAM-D service available)
Attendance: 0800-DUSK
Wind indicator: lighted
Segmented circle: no
Lights: ACTVT MIRL RY 08/26 - 121.8.
Beacon: white-green (lighted land airport)
ACTIVATE ROTG BCN - 121.8.

Airport Communications

CTAF/UNICOM: 122.975
ALLENTOWN APPROACH: 119.65(3000 & BLO) 124.45(ABV 3000)
ALLENTOWN DEPARTURE: 119.65(3000 & BLO) 124.45(ABV 3000)
IC: 119.65(3000 & BLO) 124.45(ABV 3000)
WX ASOS at DYL (16 nm S): 118.875 (215-345-0392)
WX ASOS at SMQ (16 nm E): 120.6 (908-722-2139)
WX AWOS-3 at CKZ (17 nm SW): 126.325 (215-257-7291)
WX AWOS-3 at UKT (19 nm SW): 119.475 (215-538-7610)
WX ASOS at ABE (20 nm W): PHONE 610-266-3579

Nearby radio navigation aids

VOR radial/distance  VOR name  Freq  Var
SBJr281/12.7SOLBERG VOR/DME112.9010W
BWZr226/15.5BROADWAY VOR/DME114.2011W
ARDr356/20.7YARDLEY VOR/DME108.2010W
FJCr123/21.5ALLENTOWN VORTAC117.5010W
STWr207/25.4STILLWATER VOR/DME109.6011W
ETXr098/30.3EAST TEXAS VOR/DME110.2009W
PTWr057/33.0POTTSTOWN VORTAC116.5009W
RBVr324/33.3ROBBINSVILLE VORTAC113.8010W
SAXr228/36.1SPARTA VORTAC115.7011W
GXUr343/39.7MC GUIRE VORTAC110.6012W

 
NDB name  Hdg/Dist  Freq  Var  ID
CHATHAM264/28.425413WCAT -.-. .- -
AMBLER036/30.227512WING .. -. --.

Airport Services

Fuel available: 100LL JET-A
24 HR SELF-SERVICE
Parking: tiedowns
Airframe service: MAJOR
Powerplant service: MAJOR
Bottled oxygen: NONE
Bulk oxygen: NONE

Runway Information

Runway 8/26

Dimensions: 2550 x 60 ft. / 777 x 18 m
Surface: asphalt, in good condition
Runway edge lights: medium intensity
RUNWAY 8  RUNWAY 26
Latitude: 40-35.141883N40-35.322867N
Longitude: 075-01.407300W075-00.910250W
Elevation: 463.0 ft.480.0 ft.
Gradient: 0.7% UP0.7% DOWN
Traffic pattern: leftleft
Runway heading: 074 magnetic, 064 true254 magnetic, 244 true
Markings: nonprecision, in good conditionbasic, in good condition
Visual slope indicator: 2-light PAPI on right (4.00 degrees glide path)2-light PAPI on left (3.75 degrees glide path)
RY 26 PAPI UNUSBL BYD 2.0 DEGREES LEFT OF CNTRLN.
Touchdown point: yes, no lightsyes, no lights
Obstructions: 50 ft. tree, 481 ft. from runway, 102 ft. left of centerline, 5:1 slope to clear71 ft. tree, 232 ft. from runway, 208 ft. left of centerline
+33 FT TREE, 58 FT FM RWY END, 108 FT L.

Runway 13/31

Dimensions: 1804 x 100 ft. / 550 x 30 m
Surface: asphalt/turf, in good condition
25 FT WIDE ASPH STRIP FULL LENGTH DOWN CENTER OF RWY. TURF PORTION OF RWY UNUSABLE.
RUNWAY 13  RUNWAY 31
Latitude: 40-35.352633N40-35.215417N
Longitude: 075-01.345033W075-00.999450W
Elevation: 444.0 ft.458.7 ft.
Gradient: 0.8% UP0.8% DOWN
Traffic pattern: leftleft
Runway heading: 128 magnetic, 118 true308 magnetic, 298 true
Markings: numbers only, in good conditionnumbers only, in good condition
Obstructions: 16 ft. tree, 433 ft. from runway, 95 ft. left of centerline, 14:1 slope to clear64 ft. tree, 666 ft. from runway, 142 ft. left of centerline, 7:1 slope to clear
+47 FT TREE, 112 FT FM RWY END, 117 FT L.

Airport Ownership and Management from official FAA records

Ownership: Privately-owned
Owner: ALEXANDRIA AIRPARK, LLC
63 AIRPORT ROAD
PITTSTOWN, NJ 08867
Phone 908-730-9223
Manager: W. FRITSCHE - L. CASTNER
63 AIRPORT ROAD
PITTSTOWN, NJ 08867
Phone 908-730-9223

Airport Operational Statistics

Aircraft based on the field: 90
Single engine airplanes: 83
Multi engine airplanes: 5
Ultralights: 2
    
Aircraft operations: avg 51/day *
60% local general aviation
40% transient general aviation
* for 12-month period ending 02 February 2015

Additional Remarks

TAXI ON PAVEMENT ONLY.
HEL TKOF AND LDGS RSTRD TO RWY 08/26 ONLY.
HEL USE FIXED-WING TFC PAT AND ALTS.
CTC ARPT MGR 908-730-9223 PRIOR TO CONDUCTING HEL TRNG ACT.
NO TGL OR STA ALLOWED.
FOR CD CTC ABE APCH AT 800-728-6322.

Instrument Procedures

NOTE: All procedures below are presented as PDF files. If you need a reader for these files, you should download the free Adobe Reader.

NOT FOR NAVIGATION. Please procure official charts for flight.
FAA instrument procedures published for use from 28 February 2019 at 0901Z to 28 March 2019 at 0900Z.

 
IAPs - Instrument Approach Procedures
RNAV (GPS)-A   download (193KB)
RNAV (GPS)-B   download (174KB)
VOR/DME RWY 08   download (160KB)
NOTE: Special Take-Off Minimums/Departure Procedures apply   download

Other nearby airports with instrument procedures:

N40 - Sky Manor Airport (2 nm SE)
N51 - Solberg-Hunterdon Airport (13 nm E)
N43 - Braden Airpark (14 nm NW)
KDYL - Doylestown Airport (16 nm S)
KSMQ - Somerset Airport (16 nm E)
KCKZ - Pennridge Airport (17 nm SW)
KUKT - Quakertown Airport (19 nm SW)
KABE - Lehigh Valley International Airport (20 nm W)
47N - Central Jersey Regional Airport (20 nm E)
39N - Princeton Airport (20 nm SE)
 
Loc | Ops | Rwys | IFR | FBO | Links
Com | Nav | Svcs | Stats | Notes
Area around N85 (Alexandria Airport)
 
Road maps at: MapQuest Bing Google
 
Aerial photo
WARNING: Photo may not be current or correct
Aerial photo of N85 (Alexandria Airport)
Taken in the Fall of 2011
looking southwest.

Do you have a better or more recent aerial photo of Alexandria Airport that you would like to share? If so, please send us your photo.

 
Sectional chart

 
Airport diagram
CAUTION: Diagram may not be current
Diagram of N85 (Alexandria Airport)
 
Airport distance calculator
Flying to Alexandria Airport? Find the distance to fly.

From to N85

Sunrise and sunset
Times for 21-Mar-2019
 Local
(UTC-4)
 Zulu
(UTC)
Morning civil twilight06:3610:36
Sunrise07:0311:03
Sunset19:1223:12
Evening civil twilight19:3923:39

Current date and time
Zulu (UTC)  21-Mar-2019 04:54:31
Local (UTC-4)  21-Mar-2019 00:54:31
 
METAR
KDYL 
16nm S 
210354Z AUTO 14003KT 10SM BKN035 OVC100 06/M01 A3025 RMK AO2 SLP248 T00561011
KSMQ 
16nm E 
ASOS 120.60 908-722-2139
210353Z AUTO 00000KT 10SM OVC044 05/M01 A3025 RMK AO2 SLP246 T00501006
KCKZ 
17nm SW 
210435Z AUTO 00000KT 10SM OVC033 04/M01 A3023 RMK AO2
KUKT 
19nm SW 
210435Z AUTO 12005KT 10SM BKN033 BKN042 BKN120 05/M01 A3021 RMK A01
KABE 
20nm W 
210351Z 16009KT 10SM BKN041 BKN048 OVC055 07/M02 A3024 RMK AO2 SLP243 T00721017
KTTN 
20nm SE 
ASOS 133.70 609-538-8690
210353Z AUTO 14009KT 10SM BKN037 BKN046 OVC120 06/01 A3026 RMK AO2 SLP243 T00610006
KXLL 
21nm W 
210435Z AUTO 14006KT 10SM SCT043 06/00 A3022 RMK AO2
K12N 
29nm NE 
210354Z AUTO VRB03KT 05/M02 A3025 RMK AO1 SLP248 T00501017
KLOM 
29nm SW 
210435Z AUTO 12003KT 10SM BKN034 OVC044 05/00 A3024 RMK AO1
KMMU 
30nm NE 
210435Z AUTO 00000KT 10SM OVC042 04/01 A3026 RMK AO2
TAF
KABE 
20nm W 
201733Z 2018/2118 21009KT P6SM SCT180 FM210000 16004KT P6SM BKN110 FM210400 14004KT P6SM BKN035 FM210800 10004KT 6SM -RA BR OVC020 FM211300 09006KT 4SM RA BR OVC010
KTTN 
20nm SE 
201733Z 2018/2118 19009KT P6SM SCT180 FM210000 16005KT P6SM BKN110 FM210300 15003KT P6SM OVC040 FM210600 10005KT 6SM -RA BR OVC020 FM211200 09006KT 4SM RA BR OVC008
NOTAMs
Click for the latest NOTAMs
NOTAMs are issued by the DoD/FAA and will open in a separate window not controlled by AirNav.

 

 
 

FBO, Fuel Providers, and Aircraft Ground Support

  
 Business Name 
 
 Contact 
 
 Services / Description 
 
Fuel Prices
 
Comments
  
 Alexandria Field
UNICOM 122.975
908-730-9223
[web site]
[email]
Airport management, Aviation fuel, Flight training, Aircraft rental, Aircraft maintenance, Pilot supplies, ...

More info about Alexandria Field
Phillips 66
100LL Jet A
SS $4.96 $4.30 
 Updated 13-Mar-2019
 
   write
SS=Self service
Update Fuel Prices
 

Would you like to see your business listed on this page?

 If your business provides an interesting product or service to pilots, flight crews, aircraft, or users of the Alexandria Airport, you should consider listing it here.  To start the listing process, click on the button below
 
Add a business
 

Other Pages about Alexandria Airport

www.alexandriafield.com
 
Update a link
 
Copyright © AirNav, LLC. All rights reserved. Privacy Policy  Contact